Regional Weather Roundup
Issued by NWS Boston, MA

Current Version | Previous Version | Text Only | Print | Product List | Glossary On
Versions: 1 2 3 4 5 6 7 8 9 10 11 12 13 14 15 16 17 18 19 20 21 22 23 24 25 26 27 28 29 30 31 32 33 34 35 36 37 38 39 40 41 42 43 44 45 46 47 48 49 50
000
ASUS41 KBOX 260710
RWRBOX

REGIONAL WEATHER ROUNDUP
NATIONAL WEATHER SERVICE TAUNTON MA
200 AM EST WED NOV 26 2014

NOTE:  "FAIR" INDICATES FEW OR NO CLOUDS BELOW 12,000 FEET WITH NO
SIGNIFICANT WEATHER AND/OR OBSTRUCTIONS TO VISIBILITY.  THE FOLLOWING
OBSERVATION LOCATIONS DO NOT REPORT PRESENT WEATHER...PROVINCETOWN...
SMITHFIELD...BLOCK ISLAND...KEENE...AND OXFORD.

MAZALL-260800-
EASTERN MASSACHUSETTS

CITY           SKY/WX    TMP DP  RH WIND       PRES   REMARKS
BOSTON         CLOUDY    50  28  42 W9        30.16R
BEVERLY        CLOUDY    46  28  49 W6        30.15R
LAWRENCE       CLOUDY    44  30  57 SW6       30.17R
BEDFORD        CLOUDY    43  29  57 CALM      30.14R
BLUE HILL        N/A     44  29  55 W10       30.13R
NORWOOD        CLOUDY    42  32  67 CALM      30.15R
MARSHFIELD     CLOUDY   N/A N/A N/A W5        30.17R
PLYMOUTH       CLOUDY    44  36  73 W3        30.16R
TAUNTON        CLOUDY    42  37  82 CALM      30.15R
NEW BEDFORD    CLOUDY    47  31  53 W5        30.15R
$$

MAZALL-260800-
CAPE COD AND THE ISLANDS

CITY           SKY/WX    TMP DP  RH WIND       PRES   REMARKS
FALMOUTH       CLOUDY    46  36  66 W3        30.16R
HYANNIS        CLOUDY    47  35  63 CALM      30.14R
CHATHAM        CLOUDY    47  35  63 CALM      30.16R
PROVINCETOWN   CLOUDY    48  36  61 W6        30.16R
NANTUCKET      CLOUDY    50  38  63 NW6       30.15S
MARTHAS VNYRD  CLOUDY    50  34  54 W6        30.16R
$$

MAZALL-260800-
CENTRAL AND WESTERN MASSACHUSETTS

CITY           SKY/WX    TMP DP  RH WIND       PRES   REMARKS
WORCESTER      CLOUDY    40  27  59 W6        30.14R
FITCHBURG      CLOUDY    36  31  82 CALM      30.17R
ORANGE         MOCLDY    31  30  96 CALM      30.16R
SPRINGFIELD    CLOUDY    36  31  80 NW5       30.17R
WESTFIELD      CLOUDY    40  29  64 NW5       30.17R
NORTH ADAMS    MOCLDY    38  28  67 W10       30.16R WCI  31
PITTSFIELD     MOCLDY    36  28  73 NW9       30.14R WCI  29
$$

RIZALL-260800-
RHODE ISLAND

CITY           SKY/WX    TMP DP  RH WIND       PRES   REMARKS
PROVIDENCE     CLOUDY    46  30  53 CALM      30.15R
NEWPORT        CLOUDY    49  31  49 W6        30.15R
BLOCK ISLAND   CLOUDY    50  36  57 NW5       30.15S
SMITHFIELD     CLOUDY    45  25  45 NW6       30.14R
WESTERLY       CLOUDY    47  35  63 CALM      30.16R
$$

CTZALL-260800-
CONNECTICUT

CITY           SKY/WX    TMP DP  RH WIND       PRES   REMARKS
BRADLEY INTL   CLOUDY    43  28  55 N3        30.16R
HARTFORD       CLOUDY    46  28  49 VRB7      30.19R
BRIDGEPORT     CLOUDY    47  34  60 W3        30.16R
DANBURY        CLOUDY    41  31  67 CALM      30.17R
GROTON         CLOUDY    47  32  56 CALM      30.16R
NEW HAVEN      CLOUDY    50  33  52 CALM      30.16R
CHESTER        FAIR      46  30  53 W3        30.17R
MERIDEN        CLOUDY    39  35  86 E3        30.17R
WILLIMANTIC    CLOUDY    40  34  79 N3        30.15R
OXFORD         CLOUDY    43  27  52 N6        30.16R
$$

MEZ002-015-021-024-NHZ003-005-008-011-012-014-VTZ005-008-260800-
NORTHERN NEW ENGLAND

CITY           SKY/WX    TMP DP  RH WIND       PRES   REMARKS
PORTLAND ME    CLOUDY    45  27  49 SW7       30.13R
BANGOR ME      MOCLDY    39  25  57 CALM      30.08R
CONCORD NH     MOCLDY    37  28  70 SW5       30.14R
MANCHESTER NH  CLOUDY    40  28  62 CALM      30.13R
NASHUA NH      CLOUDY    42  29  60 CALM      30.16R
PORTSMOUTH NH  CLOUDY    44  29  55 SW6       30.13R
JAFFREY NH     PTCLDY    33  28  81 S3        30.13R
KEENE NH       PTCLDY    30  28  93 S3        30.15R
BURLINGTON VT  CLOUDY    39  21  48 NW14G20   30.16S WCI  31
MT. WASHINGTON FOG       16  16 100 NW60        N/A  VSB 0   WCI -10
$$

NYZ052-076-260800-
EASTERN NEW YORK

CITY           SKY/WX    TMP DP  RH WIND       PRES   REMARKS
ALBANY         CLOUDY    40  29  64 NW8       30.21R
NEW YORK CITY  CLOUDY    51  29  42 NW12      30.17R
$$

ANZALL-260800-
MARINE OBSERVATIONS

STATION/POSITION TIME  TEMP    WIND        PRES    VSBY  WAVE
                       AIR SEA DIR/SP/G                  HT/PER
                 (UTC) (F)     (DEG/KT/KT) (MB)    (MI)  (FT/S)
BOSTON BUOY      0650   48 49  260/ 10/ 10 1021.0R         2/ 9
BUZZARDS BAY     0600          280/ 11/ 12 1020.8F
NANTUCKET SOUND  0650   50 49  300/  6/  8 1020.7R         1/ 9
MASS BAY-STELLWA 0604   49 50  250/ 10/ 12   N/A    1 7/8
ISLE OF SHOALS   0700   48     250/ 14/ 14 1020.0R
S OF BLOCK IS    0608      56                N/A           6/ 9
$$

......................KEY.........................
  SKY/WX - SKY CONDITION/PRESENT WEATHER
  TMP    - TEMPERATURE IN FAHRENHEIT
  DWPT   - DEWPOINT IN FAHRENHEIT
  RH     - RELATIVE HUMIDITY IN PERCENT
  WIND   - DIRECTION AND SPEED IN MPH
  PRES   - MEAN SEA LEVEL PRESSURE IN INCHES OF HG
  WCI    - WIND CHILL INDEX
  VSB    - VISIBILITY IN MILES
  HX     - HEAT INDEX
  TC     - TEMPERATURE IN CELSIUS
  VRB    - VARIABLE WIND DIRECTION
  N/A    - NOT AVAILABLE



USA.gov is the U.S. government's official web portal to all federal, state and local government web resources and services.